User: anonymous   Login
Location: ??????????
(42.1626°N, 44.1160°E)
Time: 12:49:41
(UTC+00:00)
Language:

FENGYUN 1C DEB - Orbit

View from above orbital plane
View from above orbital plane
View from above satellite
View from above satellite

Ground track
Ground track

The orbit data is extracted from the following two-line orbital elements,

1 31830U 99025CHU 21262.90563074  .00000308  00000-0  31585-3 0  9993
2 31830  99.1069  43.6506 0201726  96.0012  34.1674 13.74717609714597
Epoch (UTC): 19 September 2021 21:44:06
Eccentricity: 0.0201726
inclination: 99.1069°
perigee height: 834 km
apogee height: 1131 km
right ascension of ascending node: 43.6506°
argument of perigee: 96.0012°
revolutions per day: 13.74717609
mean anomaly at epoch: 34.1674°
orbit number at epoch: 71459

The dashed part of the orbit path shows where the satellite is in the earth's shadow,  

DLR